Tracking 19846 objects as of 19-Sep-2019
HD Live streaming from Space Station
objects crossing your sky now

COSMOS 1375 DEB

Track COSMOS 1375 DEB now!
10-day predictions


NORAD ID: 16380
Int'l Code: 1982-055U
Perigee: 985.8 km
Apogee: 1,071.9 km
Inclination: 65.8 °
Period: 105.6 minutes
Semi major axis: 7399 km
RCS: 0.0936 m2 (small)
Launch date: June 6, 1982
Source: Commonwealth of Independent States (former USSR) (CIS)
Launch site: PLESETSK MISSILE AND SPACE COMPLEX (PKMTR)

Note: This is SATELLITE DEBRIS
aabbcc
Your satellite tracking list
Your tracking list is empty




NASA's NSSDC Master Catalog

Two Line Element Set (TLE):
1 16380U 82055U   19260.32016706 -.00000094 +00000-0 -19453-4 0  9992
2 16380 065.8337 229.2611 0058192 231.5129 237.9324 13.63853229688333
Source of the keplerian elements: AFSPC